Location: Celina Division
(33.3022°N, 96.7580°W)
Time: 02:52:53
(UTC+00:00)

H-2A R/B (2) - Visible Passes

Search period start: 28 June 2022 00:00
Search period end: 08 July 2022 00:00
Orbit: 439 x 34387 km, 28.9° (Epoch: 27 June)

Date Brightness Start Highest point End Pass type
(mag) Time Alt. Az. Time Alt. Az. Time Alt. Az.
28 Jun 8.4 07:21:24 10° SE 12:56:51 47° SE 13:47:52 10° E visible
30 Jun 6.5 07:54:25 11° S 16:26:25 69° SSE 16:42:21 10° E visible
01 Jul 9.3 07:26:15 10° SE 11:43:26 38° SE 12:42:47 10° E visible
02 Jul 4.8 11:30:38 10° SW 13:19:53 16° SW 19:32:23 10° ESE visible
03 Jul 7.1 06:57:45 10° SSE 15:17:13 65° SSE 15:40:25 10° E visible
04 Jul 9.5 07:32:29 10° ESE 10:34:27 29° ESE 11:34:52 10° E visible
05 Jul 5.4 09:59:30 10° SSW 12:51:30 24° SW 18:31:10 10° E visible
06 Jul 7.7 06:27:26 10° SSE 14:03:37 60° SSE 14:37:58 10° E visible
07 Jul 9.5 07:44:57 10° ESE 09:28:55 18° ESE 10:20:03 10° E visible
